Location: Dulzura
(32.6442°N, 116.7814°W)
Time: 05:27:08
(UTC+00:00)

YUBILEINY - Visible Passes

Search period start: 23 March 2023 00:00
Search period end: 02 April 2023 00:00
Orbit: 1477 x 1509 km, 82.5° (Epoch: 22 March)

Date Brightness Start Highest point End Pass type
(mag) Time Alt. Az. Time Alt. Az. Time Alt. Az.
23 Mar ? 06:38:52 10° NNE 06:40:23 15° NNE 06:40:23 15° NNE visible
23 Mar ? 08:34:40 10° NNW 08:36:17 17° NNW 08:36:17 17° NNW visible
24 Mar ? 07:44:52 10° N 07:47:09 21° N 07:47:09 21° N visible
25 Mar ? 06:55:40 10° N 06:58:02 20° NNE 06:58:02 20° NNE visible
25 Mar ? 08:52:50 10° NNW 08:53:56 14° NNW 08:53:56 14° NNW visible
26 Mar ? 06:07:21 10° NNE 06:08:55 14° NNE 06:08:55 14° NNE visible
26 Mar ? 08:02:31 10° NNW 08:04:50 21° NNW 08:04:50 21° NNW visible
27 Mar ? 07:12:54 10° N 07:15:43 23° N 07:15:43 23° N visible
27 Mar ? 09:11:36 10° NW 09:11:38 10° NW 09:11:38 10° NW visible
28 Mar ? 06:23:55 10° NNE 06:26:38 20° NNE 06:26:38 20° NNE visible
28 Mar ? 08:20:31 10° NNW 08:22:32 18° NNW 08:22:32 18° NNW visible
29 Mar ? 05:36:03 10° NNE 05:37:32 13° NE 05:37:32 13° NE visible
29 Mar ? 07:30:26 10° N 07:33:27 25° N 07:33:27 25° N visible
30 Mar ? 06:40:59 10° N 06:44:22 26° NNE 06:44:22 26° NNE visible
30 Mar ? 08:38:58 10° NNW 08:40:17 14° NW 08:40:17 14° NW visible
31 Mar ? 05:52:14 10° NNE 05:55:18 20° NNE 05:55:18 20° NNE visible
31 Mar ? 07:48:16 10° NNW 07:51:13 23° NNW 07:51:13 23° NNW visible
01 Apr ? 05:05:04 10° NE 05:06:14 12° NE 05:06:14 12° NE visible
01 Apr ? 06:58:23 10° N 07:02:09 30° N 07:02:09 30° N visible
